This demonstration page uses our WeatherBlox Daily Observations layout. Learn more.

Left ArrowRight Arrow

53.62937, 11.41316

Hourly Observations for July 22, 2018

Temp ( °F °C ) Dew Point ( °F °C ) Humidity (%) Winds ( mph kmh ) Pressure ( in mb ) Visibility ( mi km ) Precip ( " mm )
6:50 am 06:50 Mostly Sunny 68 20 55 13 64 64 ESE 5 7 29.85 1011 7 11 N/A
7:20 am 07:20 Mostly Sunny 70 21 55 13 60 60 SE 6 9 29.85 1011 7 11 N/A
7:50 am 07:50 Mostly Sunny 72 22 57 14 61 61 SE 5 7 29.85 1011 7 11 N/A
8:20 am 08:20 Mostly Sunny 72 22 57 14 61 61 S 3 6 29.85 1011 7 11 N/A
8:50 am 08:50 Mostly Sunny 73 23 57 14 57 57 S 5 7 29.85 1011 7 11 N/A
9:20 am 09:20 Mostly Sunny 73 23 57 14 57 57 SSW 6 9 29.85 1011 7 11 N/A
9:50 am 09:50 Mostly Sunny 77 25 59 15 54 54 S 5 7 29.85 1011 7 11 N/A
10:20 am 10:20 Mostly Sunny 77 25 59 15 54 54 S 3 6 29.85 1011 7 11 N/A
10:50 am 10:50 Mostly Sunny 77 25 59 15 54 54 S 5 7 29.85 1011 7 11 N/A
11:20 am 11:20 Mostly Sunny 79 26 57 14 48 48 SW 6 9 29.85 1011 7 11 N/A
11:50 am 11:50 Mostly Sunny 79 26 57 14 48 48 W 6 9 29.88 1012 7 11 N/A
12:20 pm 12:20 Mostly Sunny 81 27 55 13 42 42 WSW 6 9 29.85 1011 7 11 N/A
12:50 pm 12:50 Mostly Sunny 82 28 57 14 42 42 VRB 5 7 29.85 1011 7 11 N/A
1:20 pm 13:20 Mostly Sunny 82 28 54 12 37 37 WSW 7 11 29.85 1011 7 11 N/A
1:50 pm 13:50 Mostly Sunny 82 28 54 12 37 37 VRB 5 7 29.85 1011 7 11 N/A
2:20 pm 14:20 Mostly Sunny 84 29 55 13 37 37 W 6 9 29.85 1011 7 11 N/A
2:50 pm 14:50 Mostly Sunny 84 29 54 12 35 35 VRB 7 11 29.85 1011 7 11 N/A
3:20 pm 15:20 Partly Cloudy with Showers Nearby 86 30 55 13 35 35 W 9 15 29.85 1011 30 48 N/A
3:50 pm 15:50 Mostly Sunny 84 29 54 12 35 35 W 8 13 29.85 1011 7 11 N/A
4:20 pm 16:20 Mostly Sunny 84 29 55 13 37 37 WSW 9 15 29.85 1011 7 11 N/A
4:50 pm 16:50 Mostly Sunny 84 29 54 12 35 35 W 6 9 29.85 1011 7 11 N/A
5:20 pm 17:20 Mostly Sunny 82 28 52 11 35 35 WSW 9 15 29.88 1012 7 11 N/A
5:50 pm 17:50 Mostly Sunny 81 27 52 11 37 37 WSW 12 19 29.88 1012 7 11 N/A
6:20 pm 18:20 Mostly Sunny 79 26 54 12 42 42 WSW 10 17 29.88 1012 7 11 N/A
6:50 pm 18:50 Mostly Sunny 77 25 57 14 51 51 WSW 10 17 29.88 1012 7 11 N/A
7:20 pm 19:20 Mostly Sunny 77 25 57 14 51 51 WSW 8 13 29.91 1013 7 11 N/A
7:50 pm 19:50 Mostly Sunny 75 24 59 15 57 57 SW 9 15 29.91 1013 7 11 N/A
8:20 pm 20:20 Mostly Sunny 73 23 59 15 61 61 WSW 7 11 29.91 1013 7 11 N/A
8:50 pm 20:50 Mostly Sunny 72 22 57 14 61 61 WSW 7 11 29.91 1013 7 11 N/A

Powered by AerisWeather